Ocean Tomo — 3FID9 — position and weather

sailwx.info

Track history (hours):
 
Tides and Currents Weather Stations Pressure Air Temp Water Temp Dewpoint Dewpoint Depression Visibility Wind Speed Wind Dir Waves Ship Positions

Ocean Tomo

Last reported at 2014-Jul-24 11:34 UTC. Time now 2014-Jul-24 12:20 UTC.
Position N 37°30' W 025°38'.

Length 190 m; draft 11.6 m.

Type: Ship. MMSI: 372951000.

Date/timePositionNaut miles runAvg speedWind from/ knotsBaromVisibWave heightAir tempDewpointWater temp
2014-Jul-24 11:34N 37°30' W 025°38'1312.6
2014-Jul-24 10:34N 37°29' W 025°54'1312.9
2014-Jul-24 09:34N 37°28' W 026°10'1312.5
2014-Jul-24 08:33N 37°28' W 026°26'1212.1
2014-Jul-24 07:33N 37°29' W 026°41'1212.5
2014-Jul-24 06:34N 37°29' W 026°57'1212.4
2014-Jul-24 05:33N 37°29' W 027°13'1313.0
2014-Jul-24 04:34N 37°29' W 027°29'1312.6
2014-Jul-24 03:34N 37°30' W 027°45'1212.4
2014-Jul-24 02:33N 37°30' W 028°01'1212.5
2014-Jul-24 01:34N 37°30' W 028°16'1212.2
2014-Jul-24 00:34N 37°30' W 028°32'1212.3
2014-Jul-23 23:34N 37°30' W 028°47'1212.3
2014-Jul-23 22:34N 37°31' W 029°03'1312.9
2014-Jul-23 21:33N 37°31' W 029°19'1312.5
2014-Jul-23 20:33N 37°32' W 029°35'1313.0
2014-Jul-23 19:33N 37°32' W 029°51'1312.7
2014-Jul-23 18:33N 37°32' W 030°07'1312.9
2014-Jul-23 17:34N 37°30' W 030°23'1312.7
2014-Jul-23 16:34N 37°29' W 030°39'1312.6
2014-Jul-23 15:34N 37°28' W 030°55'1312.5
2014-Jul-23 14:33N 37°27' W 031°11'1312.8
2014-Jul-23 13:33N 37°26' W 031°27'1312.7
2014-Jul-23 12:34N 37°25' W 031°43'1312.5
2014-Jul-23 11:31N 37°24' W 031°59'1212.3
2014-Jul-23 10:31N 37°22' W 032°15'1312.5
2014-Jul-23 09:30N 37°21' W 032°31'1212.3
2014-Jul-23 08:31N 37°19' W 032°46'2412.3
2014-Jul-23 06:33N 37°15' W 033°15'6212.4
2014-Jul-23 01:34N 37°11' W 034°33'  
2014-Jul-15 05:03N 26°15' W 079°00'611.6
2014-Jul-15 04:33N 26°14' W 079°07'1312.7
2014-Jul-15 03:33N 26°11' W 079°21'1514.6
2014-Jul-15 02:32N 25°57' W 079°26'  
Track history (hours):
 
Tides and Currents Weather Stations Pressure Air Temp Water Temp Dewpoint Dewpoint Depression Visibility Wind Speed Wind Dir Waves Ship Positions

Ocean Tomo

Last reported at 2014-Jul-24 11:34 UTC. Time now 2014-Jul-24 12:20 UTC.
Position N 37°30' W 025°38'.

Length 190 m; draft 11.6 m.

Type: Ship. MMSI: 372951000.

Date/timePositionNaut miles runAvg speedWind from/ knotsBaromVisibWave heightAir tempDewpointWater temp
2014-Jul-24 11:34N 37°30' W 025°38'1312.6
2014-Jul-24 10:34N 37°29' W 025°54'1312.9
2014-Jul-24 09:34N 37°28' W 026°10'1312.5
2014-Jul-24 08:33N 37°28' W 026°26'1212.1
2014-Jul-24 07:33N 37°29' W 026°41'1212.5
2014-Jul-24 06:34N 37°29' W 026°57'1212.4
2014-Jul-24 05:33N 37°29' W 027°13'1313.0
2014-Jul-24 04:34N 37°29' W 027°29'1312.6
2014-Jul-24 03:34N 37°30' W 027°45'1212.4
2014-Jul-24 02:33N 37°30' W 028°01'1212.5
2014-Jul-24 01:34N 37°30' W 028°16'1212.2
2014-Jul-24 00:34N 37°30' W 028°32'1212.3
2014-Jul-23 23:34N 37°30' W 028°47'1212.3
2014-Jul-23 22:34N 37°31' W 029°03'1312.9
2014-Jul-23 21:33N 37°31' W 029°19'1312.5
2014-Jul-23 20:33N 37°32' W 029°35'1313.0
2014-Jul-23 19:33N 37°32' W 029°51'1312.7
2014-Jul-23 18:33N 37°32' W 030°07'1312.9
2014-Jul-23 17:34N 37°30' W 030°23'1312.7
2014-Jul-23 16:34N 37°29' W 030°39'1312.6
2014-Jul-23 15:34N 37°28' W 030°55'1312.5
2014-Jul-23 14:33N 37°27' W 031°11'1312.8
2014-Jul-23 13:33N 37°26' W 031°27'1312.7
2014-Jul-23 12:34N 37°25' W 031°43'1312.5
2014-Jul-23 11:31N 37°24' W 031°59'1212.3
2014-Jul-23 10:31N 37°22' W 032°15'1312.5
2014-Jul-23 09:30N 37°21' W 032°31'1212.3
2014-Jul-23 08:31N 37°19' W 032°46'2412.3
2014-Jul-23 06:33N 37°15' W 033°15'6212.4
2014-Jul-23 01:34N 37°11' W 034°33'  
2014-Jul-15 05:03N 26°15' W 079°00'611.6
2014-Jul-15 04:33N 26°14' W 079°07'1312.7
2014-Jul-15 03:33N 26°11' W 079°21'1514.6
2014-Jul-15 02:32N 25°57' W 079°26'  

Dump ship's entire track history